• Processing (Info)

  • MPEC 2016-C11 : 2016 BD39

    The following Minor Planet Electronic Circular may be linked-to from your own Web pages, but must not otherwise be redistributed electronically.

    A form allowing access to any MPEC is at the bottom of this page.


    Read MPEC 2016-C10 Read MPEC 2016-C12


    M.P.E.C. 2016-C11                                Issued 2016 Feb. 2, 16:13 UT
    
         The Minor Planet Electronic Circulars contain information on unusual
             minor planets and routine data on comets.  They are published
        on behalf of Division F of the International Astronomical Union by the
              Minor Planet Center, Smithsonian Astrophysical Observatory,
                              Cambridge, MA 02138, U.S.A.
    
                 Prepared using the Tamkin Foundation Computer Network
    
                                  MPC@CFA.HARVARD.EDU
                URL https://www.minorplanetcenter.net/    ISSN 1523-6714
    
                                       2016 BD39
    
    Observations:
         K16B39D* C2016 01 30.32211 05 22 15.728-03 54 59.03         21.3 wLEC011F51
         K16B39D  C2016 01 30.34872 05 22 10.775-03 55 46.71         21.6 wLEC011F51
         K16B39D  C2016 01 30.36203 05 22 08.290-03 56 10.43         21.1 wLEC011F51
         K16B39D |C2016 02 01.06386 05 17 09.55 -04 45 32.7          21.2 VuEC011807
         K16B39D |C2016 02 01.06667 05 17 09.05 -04 45 37.8          21.2 VuEC011807
         K16B39D |C2016 02 01.06934 05 17 08.57 -04 45 42.3          21.2 VuEC011807
         K16B39D KC2016 02 01.42478 05 16 07.88 -04 55 44.1          21.0 RtEC011474
         K16B39D KC2016 02 01.42831 05 16 07.25 -04 55 50.1          21.4 RtEC011474
         K16B39D KC2016 02 01.43253 05 16 06.50 -04 55 57.4          20.2 RtEC011474
         K16B39D KC2016 02 02.16978105 14 02.57 -05 16 37.0          21.3 RqEC011W85
         K16B39D KC2016 02 02.17562905 14 01.56 -05 16 46.8          21.3 RqEC011W85
         K16B39D KC2016 02 02.18183905 14 00.53 -05 16 57.0          21.0 RqEC011W85
         K16B39D KC2016 02 02.42748 05 13 20.40 -05 23 41.6          20.6 RtEC011474
         K16B39D KC2016 02 02.43453 05 13 19.23 -05 23 52.7          20.3 RtEC011474
         K16B39D KC2016 02 02.44157 05 13 18.03 -05 24 04.4          20.7 RtEC011474
    
    Observer details:
    474 Mount John Observatory, Lake Tekapo.  Observers A. C. Gilmore,
        P. M. Kilmartin.  Measurer P. M. Kilmartin.  1.0-m f/7.7 reflector + CCD.
    807 Cerro Tololo.  Observers T. Linder, R. Holmes.  0.61-m f/6.5 astrograph
        + CCD.
    F51 Pan-STARRS 1, Haleakala.  Observers B. Gibson, T. Goggia, N. Primak,
        A. Schultz, M. Willman.  Measurers K. Chambers, S. Chastel, L. Denneau,
        H. Flewelling, M. Huber, E. Lilly, E. Magnier, R. Wainscoat, C. Waters,
        R. Weryk.  1.8-m Ritchey-Chretien + CCD.
    W85 Cerro Tololo-LCOGT A.  Observers T. Lister, S. Greenstreet, E. Gomez.
        Measurer T. Lister.  1.0-m f/8 Ritchey-Chretien + CCD.
    
    Orbital elements:
    2016 BD39                                                Earth MOID = 0.3334 AU
    Epoch 2016 Jan. 13.0 TT = JDT 2457400.5                 MPC
    M 286.84949              (2000.0)            P               Q
    n   0.62649523     Peri.  324.41444     -0.36471698     +0.73196435
    a   1.3526669      Node   277.43134     -0.66176266     -0.63857608
    e   0.5424577      Incl.   35.47749     -0.65502039     +0.23758951
    P   1.57           H   20.2           G   0.15           U   8
    Residuals in seconds of arc
    160130 F51  0.1+  0.1+    160201 807  0.0   0.2-    160202 W85  0.2-  0.1+
    160130 F51  0.0   0.1-    160201 474  0.2+  0.1+    160202 W85  0.1+  0.2+
    160130 F51  0.1-  0.0     160201 474  0.0   0.1+    160202 474  0.1-  0.4-
    160201 807  0.2+  0.1+    160201 474  0.3-  0.1-    160202 474  0.2+  0.1+
    160201 807  0.1+  0.2-    160202 W85  0.1+  0.2+    160202 474  0.0   0.0
    
    Ephemeris:
    2016 BD39                a,e,i = 1.35, 0.54, 35                  q = 0.6189
    Date    TT    R. A. (2000) Decl.     Delta      r     Elong.  Phase     V
    2016 01 03    07 01 35.0 +12 04 28   0.6133  1.5895   168.9     6.8    20.7
    ...
    2016 01 18    06 04 42.8 +03 00 38   0.5605  1.4873   147.5    20.8    20.8
    ...
    2016 01 26    05 35 59.8 -01 39 27   0.5652  1.4284   132.5    30.5    21.1
    ...
    2016 02 01    05 17 20.7 -04 43 49   0.5797  1.3822   121.9    37.2    21.2
    2016 02 02    05 14 31.5 -05 12 00   0.5828  1.3743   120.2    38.3    21.3
    2016 02 03    05 11 47.5 -05 39 27   0.5860  1.3664   118.6    39.3    21.3
    ...
    2016 02 09    04 57 12.7 -08 09 06   0.6080  1.3179   109.2    45.0    21.4
    ...
    2016 02 17    04 42 24.6 -10 53 27   0.6402  1.2506    98.1    51.5    21.6
    ...
    2016 03 03    04 25 45.0 -14 51 04   0.6924  1.1169    81.0    61.2    21.8
    
    A. U. Tomatic                (C) Copyright 2016 MPC           M.P.E.C. 2016-C11
    

    Read MPEC 2016-C10 Read MPEC 2016-C12


    MPEC number:

    Enter an MPEC number in one of the following forms:

    • 1997-B01 (the full form)
    • J97B01 (the packed version of the full form)
    • B01 (the abbreviated form)